STARLINK-34357

Last updated on Thu Jul 03 2025 00:02:06 GMT+0000 (Coordinated Universal Time)

1 64310U 25123V 25183.58335648 -.03224507 00000+0 -76858-1 0 9997 2 64310 69.9998 120.1074 0002487 275.9711 293.7331 15.45403100 4964
UTC large
Height (km)
Speed (km/s)
/
Latitude / Longitude
Inclination (degrees)
Orbital Period (minutes)
Azimuth
Elevation
Range (km)
Doppler Factor

Next 0 passes for location: London (51.5072 / 0.1276)

Sorry there are no passes over London.